Simultaneous Nadir Overpasses (SNOs) Predictions

Prediction of SNOs between GOES-17 and METOP-B Satellite Orbit:

Table of predicted SNOs for the next 14.0 days since TLE Epoch: 4/13/2024
Index Date Time (GOES-17) GOES-17 Lat,Lon METOP-B Lat,Lon Distance(km) Time Diff (sec)
1 04/14/2024 04:37:16 0.00,-104.69 -0.71,-107.90 365.51 80
2 04/15/2024 04:13:56 -0.00,-104.69 0.37,-102.90 203.27 80
3 04/16/2024 16:32:47 0.00,-104.69 0.63,-107.47 317.51 80
4 04/17/2024 16:14:48 0.00,-104.69 -0.51,-102.49 251.64 80
5 04/19/2024 04:33:47 -0.00,-104.70 -0.53,-107.09 271.90 80
6 04/20/2024 04:10:26 -0.01,-104.71 0.55,-102.09 297.34 80
7 04/21/2024 16:29:18 0.01,-104.71 0.43,-106.67 222.94 80
8 04/22/2024 16:11:17 0.01,-104.72 -0.66,-101.67 346.54 80
9 04/24/2024 04:30:17 -0.01,-104.73 -0.37,-106.28 176.64 80
10 04/25/2024 04:06:57 -0.01,-104.73 0.78,-101.29 392.55 80
11 04/26/2024 16:25:47 0.01,-104.73 0.25,-105.86 128.48 80
